Вернуться в каталог

ICEYE-X5

АктивенНаукаPO
NORAD 44389·PAYLOAD·🇫🇮 Finland

Запущен Jul 5, 2019 с Vostochny Cosmodrome

Loading…

Ближайшие Пролёты (ближайшие 24 часа)

TLE

СвежийSource: Space-Track

Эпоха: Sep 14, 2026, 22:03 UTC

1 44389U 19038C   26257.91913390  .00071184  00000-0  75864-3 0  9990
2 44389  97.8585 322.1481 0003766 260.0477 100.0356 15.63742397396944

Отслеживайте ICEYE-X5 в реальном времени с AllMySat

Download on the App Store